sat.trackr.live / text

‹ back to catalog

UNKNOWN

NORAD 89403

UNKNOWN UNKNOWN UNKNOWN

§ Identity

Operator
Country
Launch date
Launch site
Launch vehicle
Mass (kg)
RCS (m²)

External: N2YO · Heavens-Above

§ Orbital elements

Epoch: 2026-05-18T02:49:06.051360Z

Period
110.86 min
Inclination
90.2511°
Eccentricity
0.0024357
Mean motion
12.98901475 rev/d
Perigee alt
1,247.8 km
Apogee alt
1,285.0 km
Semi-major
7,644.5 km
B*
-2.3029e-3
RAAN
9.3940°
Arg perigee
167.7310°
Mean anomaly
345.8153°
Rev number
49,812

§ Raw data

UNKNOWN1 89403U          26138.11743115 -.00000675  00000+0 -23029-2 0  99942 89403  90.2511   9.3940 0024357 167.7310 345.8153 12.98901475498124

JSON: /api/v1/satellites/89403 · /tle

For live sub-satellite position, see the globe view (requires WebGL).

§ Visibility from observer

Set your observer location to see the next 7 days of passes ≥ 10°. The values pass through the URL so the page stays shareable.

No JS? Fill the form by hand. The geolocation button needs JavaScript.